Weather History for Chignik, AK

Change the Weather History Date:

Thursday, December 19, 2013

  Actual Average Record
Temperature  
Mean Temperature 37 °F -  
Max Temperature 39 °F 31 °F 51 °F (2010)
Min Temperature 35 °F 24 °F 12 °F (2001)
Degree Days  
Heating Degree Days 28    
Moisture  
Dew Point 37 °F    
Average Humidity 98    
Maximum Humidity 100    
Minimum Humidity 93    
Precipitation  
Precipitation 0.31 in - - ()
Sea Level Pressure  
Sea Level Pressure 29.45 in    
Wind  
Wind Speed 4 mph (ENE)    
Max Wind Speed 13 mph    
Max Gust Speed 16 mph    
Visibility 4 miles    
Events      
Averages and records for this station are not official NWS values.
T = Trace of Precipitation, MM = Missing Value Source: NWS Daily Summary

Daily Weather History Graph

Daily Weather History Graph

Search for Another Location

Airport:

Trip Planner

Search our weather history database for the weather conditions in past years. The results will help you decide how hot, cold, wet, or windy it might be!

Date:

Astronomy

Dec. 19, 2013 Rise Set
Actual Time 10:04 AM AKST 4:57 PM AKST
Civil Twilight 9:16 AM AKST 5:45 PM AKST
Nautical Twilight 8:26 AM AKST 6:35 PM AKST
Astronomical Twilight 7:40 AM AKST 7:21 PM AKST
Moon 8:01 PM AKST (12/19) 11:04 AM AKST (12/19)
Length of Visible Light 8h 29m
Length of Day
6h 52m
Waning Gibbous, 95% of the Moon is Illuminated
Dec 19
Waning Gibbous
Dec 25
Last Quarter
Jan 1
New
Jan 7
First Quarter
Jan 15
Full

Hourly Weather History & Observations

Time (AKST) Temp. Windchill Dew Point Humidity Pressure Visibility Wind Dir Wind Speed Gust Speed Precip Events Conditions
12:16 AM 35.6 °F - 35.6 °F 100% 29.43 in 10.0 mi Calm Calm - N/A   Scattered Clouds
12:36 AM 35.6 °F - 35.6 °F 100% 29.44 in 10.0 mi Calm Calm - N/A   Mostly Cloudy
12:56 AM 35.6 °F 32.8 °F 35.6 °F 100% 29.45 in 10.0 mi SSE 3.5 mph - N/A   Overcast
1:16 AM 35.6 °F 32.8 °F 35.6 °F 100% 29.46 in 10.0 mi South 3.5 mph - N/A   Overcast
1:36 AM 35.6 °F 31.7 °F 35.6 °F 100% 29.44 in 10.0 mi SSE 4.6 mph - 0.01 in   Overcast
1:56 AM 35.6 °F - 35.6 °F 100% 29.44 in 10.0 mi Calm Calm - 0.01 in   Overcast
2:16 AM 35.6 °F - 33.8 °F 93% 29.45 in 10.0 mi Calm Calm - N/A   Overcast
2:36 AM 37.4 °F - 35.6 °F 93% 29.46 in 10.0 mi Calm Calm - N/A   Overcast
2:56 AM 35.6 °F - 35.6 °F 100% 29.47 in 6.0 mi Calm Calm - N/A   Overcast
3:16 AM 35.6 °F 32.8 °F 35.6 °F 100% 29.46 in 7.0 mi SSE 3.5 mph - 0.01 in   Overcast
3:36 AM 37.4 °F - 37.4 °F 100% 29.47 in 4.0 mi Calm Calm - 0.01 in   Overcast
3:56 AM 37.4 °F - 37.4 °F 100% 29.46 in 1.8 mi Calm Calm - 0.01 in   Overcast
4:16 AM 37.4 °F - 37.4 °F 100% 29.46 in 1.8 mi Calm Calm - N/A   Overcast
4:36 AM 37.4 °F 33.8 °F 37.4 °F 100% 29.47 in 1.8 mi East 4.6 mph - N/A   Overcast
4:56 AM 37.4 °F 31.4 °F 37.4 °F 100% 29.47 in 4.0 mi ESE 8.1 mph - 0.01 in   Overcast
5:16 AM 37.4 °F 32.1 °F 37.4 °F 100% 29.47 in 3.0 mi East 6.9 mph - N/A   Mostly Cloudy
5:36 AM 37.4 °F 33.8 °F 37.4 °F 100% 29.48 in 4.0 mi ESE 4.6 mph - 0.01 in   Overcast
5:56 AM 39.2 °F 33.0 °F 37.4 °F 93% 29.48 in 9.0 mi East 9.2 mph - 0.01 in   Overcast
6:16 AM 37.4 °F 31.4 °F 37.4 °F 100% 29.47 in 5.0 mi East 8.1 mph - 0.01 in   Overcast
6:36 AM 37.4 °F 33.8 °F 35.6 °F 93% 29.47 in 5.0 mi East 4.6 mph - 0.01 in   Overcast
6:56 AM 37.4 °F 34.9 °F 35.6 °F 93% 29.46 in 5.0 mi East 3.5 mph - 0.01 in   Overcast
7:16 AM 37.4 °F 30.8 °F 35.6 °F 93% 29.47 in 5.0 mi ENE 9.2 mph - N/A   Overcast
7:36 AM 37.4 °F 32.8 °F 35.6 °F 93% 29.46 in 4.0 mi East 5.8 mph - N/A   Overcast
7:56 AM 37.4 °F 29.8 °F 35.6 °F 93% 29.45 in 4.0 mi ENE 11.5 mph - 0.01 in   Overcast
8:16 AM 37.4 °F 30.3 °F 37.4 °F 100% 29.45 in 4.0 mi NE 10.4 mph - N/A   Overcast
8:36 AM 37.4 °F 30.3 °F 35.6 °F 93% 29.45 in 4.0 mi NE 10.4 mph - N/A   Overcast
8:56 AM 37.4 °F 30.3 °F 35.6 °F 93% 29.45 in 4.0 mi ENE 10.4 mph - 0.01 in   Overcast
9:16 AM 37.4 °F 29.3 °F 37.4 °F 100% 29.44 in 3.0 mi East 12.7 mph 16.1 mph 0.02 in   Overcast
9:36 AM 37.4 °F 32.1 °F 37.4 °F 100% 29.45 in 3.0 mi ENE 6.9 mph - 0.03 in   Overcast
9:56 AM 37.4 °F 32.8 °F 35.6 °F 93% 29.46 in 3.0 mi ENE 5.8 mph - 0.03 in   Overcast
10:16 AM 37.4 °F 34.9 °F 37.4 °F 100% 29.47 in 1.5 mi ENE 3.5 mph - 0.01 in   Overcast
10:36 AM 37.4 °F 34.9 °F 37.4 °F 100% 29.46 in 2.5 mi ENE 3.5 mph - 0.02 in   Overcast
10:56 AM 37.4 °F 34.9 °F 35.6 °F 93% 29.45 in 2.0 mi ESE 3.5 mph - 0.03 in   Overcast
11:16 AM 37.4 °F 33.8 °F 35.6 °F 93% 29.45 in 2.0 mi ENE 4.6 mph - N/A   Overcast
11:36 AM 37.4 °F 30.3 °F 35.6 °F 93% 29.45 in 2.0 mi NE 10.4 mph - N/A   Overcast
11:56 AM 37.4 °F 31.4 °F 37.4 °F 100% 29.44 in 3.0 mi NE 8.1 mph - 0.01 in   Overcast
12:16 PM 37.4 °F 29.8 °F 35.6 °F 93% 29.44 in 3.0 mi ENE 11.5 mph - N/A   Overcast
12:36 PM 37.4 °F 31.4 °F 37.4 °F 100% 29.44 in 3.0 mi ENE 8.1 mph - 0.01 in   Overcast
12:56 PM 37.4 °F 33.8 °F 35.6 °F 93% 29.43 in 1.5 mi ENE 4.6 mph - 0.01 in   Overcast
1:16 PM 37.4 °F 32.1 °F 37.4 °F 100% 29.42 in 1.8 mi ENE 6.9 mph - 0.01 in   Overcast
1:36 PM 39.2 °F 34.2 °F 39.2 °F 100% 29.42 in 2.0 mi ESE 6.9 mph - 0.02 in   Overcast
1:56 PM 39.2 °F - 39.2 °F 100% 29.42 in 2.5 mi Calm Calm - 0.02 in   Overcast
2:16 PM 39.2 °F - 39.2 °F 100% 29.43 in 2.5 mi Calm Calm - 0.01 in   Overcast
2:36 PM 39.2 °F - 39.2 °F 100% 29.43 in 2.0 mi Calm Calm - 0.01 in   Overcast
2:56 PM 39.2 °F 37.0 °F 39.2 °F 100% 29.43 in 2.0 mi NE 3.5 mph - 0.03 in   Overcast
3:16 PM 39.2 °F 35.0 °F 39.2 °F 100% 29.43 in 2.0 mi ENE 5.8 mph - N/A   Overcast
3:36 PM 39.2 °F 35.9 °F 39.2 °F 100% 29.43 in 3.0 mi NNE 4.6 mph - 0.01 in   Overcast
3:56 PM 39.2 °F 35.9 °F 39.2 °F 100% 29.44 in 1.5 mi NNW 4.6 mph - 0.01 in   Overcast
4:16 PM 39.2 °F 35.0 °F 39.2 °F 100% 29.44 in 1.2 mi NNE 5.8 mph - 0.01 in   Overcast
4:36 PM 39.2 °F 37.0 °F 39.2 °F 100% 29.44 in 1.5 mi ENE 3.5 mph - 0.02 in   Overcast
4:56 PM 39.2 °F 35.0 °F 39.2 °F 100% 29.44 in 2.0 mi North 5.8 mph - 0.03 in   Overcast
5:16 PM 39.2 °F 37.0 °F 37.4 °F 93% 29.43 in 3.0 mi NE 3.5 mph - 0.01 in   Overcast
5:36 PM 39.2 °F 35.9 °F 39.2 °F 100% 29.43 in 3.0 mi NE 4.6 mph - 0.01 in   Mostly Cloudy
5:56 PM 39.2 °F 34.2 °F 37.4 °F 93% 29.44 in 3.0 mi NNE 6.9 mph - 0.01 in   Overcast
6:16 PM 39.2 °F 37.0 °F 39.2 °F 100% 29.44 in 4.0 mi NNE 3.5 mph - N/A   Overcast
6:36 PM 39.2 °F 35.9 °F 39.2 °F 100% 29.46 in 3.0 mi ENE 4.6 mph - 0.01 in   Overcast
6:56 PM 39.2 °F 37.0 °F 37.4 °F 93% 29.46 in 3.0 mi East 3.5 mph - 0.01 in   Overcast
7:16 PM 39.2 °F 33.0 °F 37.4 °F 93% 29.47 in 5.0 mi ESE 9.2 mph - N/A   Overcast
7:36 PM 39.2 °F 35.0 °F 39.2 °F 100% 29.47 in 4.0 mi ENE 5.8 mph - N/A   Overcast
7:56 PM 39.2 °F 34.2 °F 39.2 °F 100% 29.47 in 3.0 mi NNE 6.9 mph - 0.01 in   Overcast
8:16 PM 39.2 °F - 39.2 °F 100% 29.47 in 4.0 mi Calm Calm - N/A   Overcast
8:36 PM 39.2 °F 37.0 °F 39.2 °F 100% 29.48 in 4.0 mi NNE 3.5 mph - N/A   Overcast
8:56 PM 39.2 °F 37.0 °F 39.2 °F 100% 29.48 in 3.0 mi NW 3.5 mph - N/A   Overcast
9:16 PM 39.2 °F - 39.2 °F 100% 29.48 in 3.0 mi Calm Calm - N/A   Overcast
9:36 PM 39.2 °F - 39.2 °F 100% 29.48 in 2.5 mi Calm Calm - N/A   Overcast
9:56 PM 39.2 °F 37.0 °F 39.2 °F 100% 29.48 in 3.0 mi East 3.5 mph - N/A   Overcast
10:16 PM 37.4 °F 34.9 °F 37.4 °F 100% 29.48 in 3.0 mi NE 3.5 mph - N/A   Overcast
10:36 PM 39.2 °F 35.9 °F 39.2 °F 100% 29.48 in 3.0 mi North 4.6 mph - 0.01 in   Overcast
10:56 PM 39.2 °F 37.0 °F 37.4 °F 93% 29.48 in 5.0 mi ENE 3.5 mph - 0.02 in   Overcast
11:16 PM 37.4 °F - 37.4 °F 100% 29.48 in 10.0 mi Calm Calm - 0.01 in   Overcast
11:36 PM 37.4 °F 34.9 °F 37.4 °F 100% 29.48 in 10.0 mi SSE 3.5 mph - 0.02 in   Overcast
11:56 PM 37.4 °F 34.9 °F 37.4 °F 100% 29.48 in 5.0 mi SSE 3.5 mph - 0.02 in   Overcast